Weather History for Kaneohe MCBH, HI

Change the Weather History Date:

Sunday, January 20, 2013

  Actual Average Record
Temperature  
Mean Temperature 73 °F -  
Max Temperature 78 °F 75 °F 80 °F (1998)
Min Temperature 68 °F 66 °F 66 °F (1997)
Cooling Degree Days 8    
Growing Degree Days 23 (Base 50)    
Moisture  
Dew Point 55 °F    
Average Humidity 56    
Maximum Humidity 65    
Minimum Humidity 47    
Precipitation  
Precipitation 0.00 in - - ()
Sea Level Pressure  
Sea Level Pressure 30.04 in    
Wind  
Wind Speed 14 mph (NNE)    
Max Wind Speed 17 mph    
Max Gust Speed 21 mph    
Visibility 10 miles    
Events      
Averages and records for this station are not official NWS values.
T = Trace of Precipitation, MM = Missing Value Source: NWS Daily Summary

Daily Weather History Graph

Daily Weather History Graph

Search for Another Location

Airport:

Trip Planner

Search our weather history database for the weather conditions in past years. The results will help you decide how hot, cold, wet, or windy it might be!

Date:

Astronomy

Jan. 20, 2013 Rise Set
Actual Time 7:11 AM HST 6:13 PM HST
Civil Twilight 6:47 AM HST 6:37 PM HST
Nautical Twilight 6:20 AM HST 7:04 PM HST
Astronomical Twilight 5:53 AM HST 7:31 PM HST
Moon 1:20 PM HST (1/20) 1:57 AM HST (1/20)
Length of Visible Light 11h 49m
Length of Day
11h 02m
Waxing Gibbous, 68% of the Moon is Illuminated
Jan 20
Waxing Gibbous
Jan 26
Full
Feb 3
Last Quarter
Feb 9
New
Feb 17
First Quarter

Hourly Weather History & Observations

Time (HST) Temp. Dew Point Humidity Pressure Visibility Wind Dir Wind Speed Gust Speed Precip Events Conditions
12:57 AM 69.8 °F 54.0 °F 57% 30.03 in 10.0 mi North 17.3 mph - N/A   Overcast
1:57 AM 69.8 °F 54.0 °F 57% 30.02 in 10.0 mi North 15.0 mph - N/A   Overcast
2:57 AM 69.8 °F 55.0 °F 59% 30.01 in 10.0 mi North 13.8 mph - N/A   Mostly Cloudy
3:57 AM 69.8 °F 54.0 °F 57% 29.99 in 10.0 mi NNE 15.0 mph - N/A   Overcast
4:57 AM 69.8 °F 57.0 °F 64% 30.01 in 10.0 mi NNE 11.5 mph 20.7 mph N/A   Overcast
5:57 AM 69.8 °F 55.0 °F 59% 30.02 in 10.0 mi North 10.4 mph - N/A   Mostly Cloudy
6:57 AM 68.0 °F 55.9 °F 65% 30.04 in 10.0 mi NNE 15.0 mph - N/A   Mostly Cloudy
7:00 AM - - N/A% - - North - - N/A   Unknown
7:57 AM 69.8 °F 55.0 °F 59% 30.06 in 10.0 mi North 16.1 mph - N/A   Mostly Cloudy
8:57 AM 71.2 °F 55.0 °F 56% 30.07 in 10.0 mi NNE 12.7 mph - N/A   Partly Cloudy
9:57 AM 74.7 °F 55.0 °F 50% 30.09 in 10.0 mi North 15.0 mph - N/A   Scattered Clouds
10:57 AM 75.4 °F 55.9 °F 51% 30.08 in 10.0 mi North 13.8 mph - N/A   Scattered Clouds
11:57 AM 76.3 °F 55.9 °F 49% 30.07 in 10.0 mi NNE 12.7 mph - N/A   Scattered Clouds
12:57 PM 77.4 °F 55.9 °F 47% 30.03 in 10.0 mi NNE 15.0 mph 18.4 mph N/A   Partly Cloudy
1:57 PM 78.1 °F 57.0 °F 48% 30.01 in 10.0 mi NNE 12.7 mph - N/A   Scattered Clouds
2:57 PM 76.6 °F 55.9 °F 49% 29.99 in 10.0 mi North 11.5 mph - N/A   Partly Cloudy
3:57 PM 76.3 °F 55.9 °F 49% 30.00 in 10.0 mi NNE 11.5 mph - N/A   Partly Cloudy
4:57 PM 74.3 °F 55.9 °F 53% 30.00 in 10.0 mi NNE 10.4 mph - N/A   Scattered Clouds
5:57 PM 74.5 °F 55.0 °F 51% 30.02 in 10.0 mi NNE 8.1 mph - N/A   Scattered Clouds
6:57 PM 72.3 °F 55.0 °F 54% 30.04 in 10.0 mi NNE 11.5 mph - N/A   Partly Cloudy
7:57 PM 71.1 °F 55.0 °F 57% 30.06 in 10.0 mi NNE 11.5 mph - N/A   Mostly Cloudy
8:57 PM 70.9 °F 55.9 °F 59% 30.07 in 10.0 mi NNE 8.1 mph - N/A   Scattered Clouds
9:57 PM 70.7 °F 57.0 °F 62% 30.07 in 10.0 mi NNE 12.7 mph - N/A   Scattered Clouds
10:57 PM 70.3 °F 55.9 °F 60% 30.07 in 10.0 mi NNE 10.4 mph - N/A   Scattered Clouds
11:57 PM 70.3 °F 55.9 °F 60% 30.06 in 10.0 mi NE 6.9 mph - N/A   Scattered Clouds